This is the latest recevied weather packets stored in our database for station/object IR4UCA. If no packets are shown the sender has not sent any weather packets the latest 10 day(s).
| Time | Temp. | Humidity | Pressure | Rain* | Wind** | Luminosity | Snow |
|---|---|---|---|---|---|---|---|
| 1777452583 | 17.78° C | 82% | 1016.5 hPa | 0 mm | - | - | - |
| 1777451984 | 17.78° C | 83% | 1016.4 hPa | 0 mm | - | - | - |
| 1777450784 | 17.22° C | 85% | 1016.6 hPa | 0 mm | - | - | - |
| 1777450183 | 16.67° C | 86% | 1016.4 hPa | 0 mm | - | - | - |
| 1777449583 | 16.11° C | 86% | 1016.3 hPa | 0 mm | - | - | - |
| 1777448985 | 15.56° C | 86% | 1016.3 hPa | 0 mm | - | - | - |
| 1777448384 | 15.56° C | 86% | 1016.3 hPa | 0 mm | - | - | - |
| 1777447783 | 15.56° C | 85% | 1016.3 hPa | 0 mm | - | - | - |
| 1777447184 | 15° C | 82% | 1016.4 hPa | 0 mm | - | - | - |
| 1777446583 | 14.44° C | 82% | 1016.3 hPa | 0 mm | - | - | - |
| 1777445983 | 14.44° C | 82% | 1016.2 hPa | 0 mm | - | - | - |
| 1777445385 | 14.44° C | 82% | 1016.2 hPa | 0 mm | - | - | - |
| 1777444784 | 13.89° C | 83% | 1016.2 hPa | 0 mm | - | - | - |
| 1777444184 | 13.33° C | 83% | 1016.1 hPa | 0 mm | - | - | - |
| 1777443585 | 13.33° C | 83% | 1016.1 hPa | 0 mm | - | - | - |
| 1777442983 | 13.33° C | 83% | 1015.9 hPa | 0 mm | - | - | - |
| 1777442383 | 13.33° C | 82% | 1015.8 hPa | 0 mm | - | - | - |
| 1777441783 | 13.33° C | 81% | 1015.7 hPa | 0 mm | - | - | - |
| 1777441184 | 13.33° C | 81% | 1015.5 hPa | 0 mm | - | - | - |
| 1777440583 | 13.33° C | 81% | 1015.6 hPa | 0 mm | - | - | - |
| 1777439383 | 13.89° C | 80% | 1015.5 hPa | 0 mm | - | - | - |
| 1777438784 | 13.89° C | 79% | 1015.5 hPa | 0 mm | - | - | - |
| 1777438183 | 13.89° C | 80% | 1015.5 hPa | 0 mm | - | - | - |
| 1777437587 | 13.89° C | 80% | 1015.6 hPa | 0 mm | - | - | - |
| 1777436985 | 13.89° C | 81% | 1015.6 hPa | 0 mm | - | - | - |
* Rain latest hour (hover to see other rain measurements)
** Current wind speed in m/s (hover to see current wind gust speed)